Home   Weather   Durban   Past weeks
Flag for South Africa

Past Weather in Durban, South Africa — Yesterday and Last 2 Weeks

Now
68 °F

Passing clouds.


Feels Like: 68 °F
Forecast: 77 / 69 °F
Wind: 6 mph from South

Location: King Shaka International Airport

Current Time: Apr 24, 2019 at 2:12:05 am

Latest Report: Apr 24, 2019 at 1:00 am


Visibility: N/A

Pressure: 30.12 "Hg

Humidity: 88%

Dew Point: 64 °F

Location of DurbanLocation

Past Weather in Durban — Graph

°F

Durban Temperature Yesterday

Maximum temperature yesterday: 77 °F (at 11:43 am)
Minimum temperature yesterday: 66 °F (at 12:15 am)
Average temperature yesterday: 70 °F

High & Low Weather Summary for the Past Weeks

 TemperatureHumidityPressure
High84 °F (Apr 20, 11:00 am)100% (Apr 10, 7:00 am)30.21 "Hg (Apr 10, 7:00 am)
Low57 °F (Apr 13, 2:00 am)55% (Apr 20, 11:00 am)29.77 "Hg (Apr 14, 5:00 am)
Average70 °F83%30.04 "Hg
* Reported Apr 9 1:00 am — Apr 24 1:00 am, Durban. Weather by CustomWeather, © 2019

Note: Actual official high and low records may vary slightly from our data, if they occured in-between our weather recording intervals... More about our weather records

Advertising

Durban Weather History for the Previous 24 Hours

Scroll right to see more
 ConditionsComfort  
Time TempWeatherWind HumidityBarometerVisibility
1:00 am
Wed, Apr 24
68 °FPassing clouds.6 mph88%30.12 "HgN/A
11:00 pm
Tue, Apr 23
68 °FPartly cloudy.2 mph94%30.12 "HgN/A
10:00 pm70 °FPartly cloudy.2 mph88%30.15 "HgN/A
9:00 pm70 °FPassing clouds.1 mph94%30.15 "HgN/A
8:00 pm70 °FPassing clouds.No wind88%30.12 "HgN/A
7:00 pm70 °FPassing clouds.1 mph94%30.12 "HgN/A
6:00 pm72 °FPassing clouds.1 mph88%30.12 "HgN/A
5:00 pm73 °FPartly sunny.5 mph83%30.09 "HgN/A
4:00 pm73 °FPartly sunny.5 mph83%30.09 "HgN/A
3:00 pm73 °FScattered clouds.6 mph78%30.09 "HgN/A
2:00 pm75 °FPassing clouds.6 mph74%30.09 "HgN/A
1:00 pm75 °FPartly sunny.7 mph74%30.09 "HgN/A
12:00 pm75 °FScattered clouds.3 mph69%30.12 "HgN/A
11:43 am77 °FPartly sunny.3 mph65%30.12 "HgN/A
11:00 am73 °FBroken clouds.3 mph78%30.12 "HgN/A
10:00 am70 °FBroken clouds.2 mph88%30.15 "HgN/A
9:00 am68 °FMostly cloudy.6 mph88%30.15 "HgN/A
8:04 am68 °FCloudy.7 mph94%30.12 "HgN/A
7:56 am68 °FDrizzle. Cloudy.7 mph94%30.12 "Hg3 mi
7:00 am68 °FCloudy.1 mph94%30.09 "HgN/A
6:09 am68 °FMostly cloudy.2 mph94%30.09 "HgN/A
5:00 am68 °FOvercast.7 mph94%30.09 "HgN/A
4:53 am68 °FOvercast.7 mph94%30.09 "HgN/A
4:37 am68 °FDrizzle. Mostly cloudy.5 mph94%30.09 "Hg6 mi
4:16 am68 °FLight rain. Mostly cloudy.5 mph94%30.09 "Hg5 mi
4:00 am68 °FRain. Overcast.10 mph94%30.09 "Hg4 mi
3:33 am68 °FRain. Overcast.10 mph94%30.09 "Hg2 mi
3:11 am68 °FLight rain. Mostly cloudy.3 mph94%30.09 "Hg5 mi
2:00 am68 °FDrizzle. Mostly cloudy.6 mph94%30.12 "Hg2 mi
Weather by CustomWeather, © 2019

See weather overview